sat.trackr.live / text

‹ back to catalog

STARLINK-34987

NORAD 65255 · 2025-179W

PAYLOAD ACTIVE UNKNOWN

§ Identity

Operator
Country
US
Launch date
2025-08-18
Launch site
AFWTR
Launch vehicle
Mass (kg)
RCS (m²)

Purposes: comms

External: N2YO · Heavens-Above · Gunter

§ Orbital elements

Epoch: 2026-05-25T02:25:20.900640Z

Period
95.64 min
Inclination
97.4455°
Eccentricity
0.0002430
Mean motion
15.05657501 rev/d
Perigee alt
547.8 km
Apogee alt
551.2 km
Semi-major
6,927.6 km
B*
1.1537e-4
RAAN
187.8790°
Arg perigee
108.6723°
Mean anomaly
251.4768°
Rev number
4,330

§ Raw data

STARLINK-349871 65255U 25179W   26145.10093635  .00001607  00000+0  11537-3 0  99952 65255  97.4455 187.8790 0002430 108.6723 251.4768 15.05657501 43303

JSON: /api/v1/satellites/65255 · /tle

For live sub-satellite position, see the globe view (requires WebGL).

§ Visibility from observer

Set your observer location to see the next 7 days of passes ≥ 10°. The values pass through the URL so the page stays shareable.

No JS? Fill the form by hand. The geolocation button needs JavaScript.